When you browse on this site, cookies collect data to enhance your experience and personalize the content and advertising you see.
Visit our Privacy Policy to learn more. By continuing to use the site, you agree to this use of cookies and data.
  • en France
  • Liste des pays
  • À 7 jours
  • Température de l'eau
  • Carte météo
  • Widgets météo
  • user-avatar
    Se connecter

    Météo par heure à Neuquén

    Ce jour, 1 Avril, Mercredi

    Heure Température Précipitation Vent Pression Humidité
    00:00 +14°C° 0 mm 2 m/s 735 mmHg 87%
    01:00 +13°C° 0 mm 2 m/s 735 mmHg 88%
    02:00 +13°C° 0 mm 2 m/s 735 mmHg 89%
    03:00 +12°C° 0 mm 3 m/s 735 mmHg 89%
    04:00 +11°C° 0 mm 3 m/s 735 mmHg 89%
    05:00 +12°C° 0 mm 4 m/s 736 mmHg 84%
    06:00 +13°C° 0 mm 4 m/s 736 mmHg 80%
    07:00 +13°C° 0 mm 5 m/s 737 mmHg 76%
    08:00 +16°C° 0 mm 5 m/s 737 mmHg 61%
    09:00 +19°C° 0 mm 5 m/s 737 mmHg 46%
    10:00 +22°C° 0 mm 4 m/s 738 mmHg 32%
    11:00 +23°C° 0 mm 4 m/s 738 mmHg 27%
    12:00 +25°C° 0 mm 4 m/s 738 mmHg 22%
    13:00 +26°C° 0 mm 4 m/s 737 mmHg 17%
    14:00 +27°C° 0 mm 4 m/s 737 mmHg 15%
    15:00 +27°C° 0 mm 4 m/s 737 mmHg 13%
    16:00 +27°C° 0 mm 3 m/s 737 mmHg 11%
    17:00 +24°C° 0 mm 3 m/s 738 mmHg 13%
    18:00 +20°C° 0 mm 2 m/s 738 mmHg 16%
    19:00 +17°C° 0 mm 2 m/s 739 mmHg 18%
    20:00 +17°C° 0 mm 2 m/s 739 mmHg 19%
    21:00 +16°C° 0 mm 3 m/s 740 mmHg 20%
    22:00 +15°C° 0 mm 4 m/s 740 mmHg 21%
    23:00 +14°C° 0 mm 4 m/s 741 mmHg 25%

    Demain, 2 Avril, Jeudi

    Heure Température Précipitation Vent Pression Humidité
    00:00 +14°C° 0 mm 4 m/s 741 mmHg 30%
    01:00 +13°C° 0 mm 4 m/s 741 mmHg 35%
    02:00 +12°C° 0 mm 3 m/s 741 mmHg 37%
    03:00 +12°C° 0 mm 3 m/s 741 mmHg 39%
    04:00 +11°C° 0 mm 3 m/s 741 mmHg 41%
    05:00 +12°C° 0 mm 3 m/s 741 mmHg 39%
    06:00 +14°C° 0 mm 2 m/s 741 mmHg 38%
    07:00 +15°C° 0 mm 2 m/s 742 mmHg 36%
    08:00 +17°C° 0 mm 3 m/s 742 mmHg 32%
    09:00 +19°C° 0 mm 3 m/s 741 mmHg 27%
    10:00 +21°C° 0 mm 3 m/s 741 mmHg 23%
    11:00 +23°C° 0 mm 4 m/s 741 mmHg 21%
    12:00 +25°C° 0 mm 4 m/s 740 mmHg 18%
    13:00 +26°C° 0 mm 4 m/s 739 mmHg 16%
    14:00 +27°C° 0 mm 4 m/s 739 mmHg 15%
    15:00 +27°C° 0 mm 4 m/s 738 mmHg 15%
    16:00 +27°C° 0 mm 4 m/s 737 mmHg 14%
    17:00 +25°C° 0 mm 4 m/s 737 mmHg 16%
    18:00 +22°C° 0 mm 4 m/s 737 mmHg 19%
    19:00 +20°C° 0 mm 4 m/s 737 mmHg 22%
    20:00 +19°C° 0 mm 4 m/s 736 mmHg 24%
    21:00 +18°C° 0 mm 4 m/s 736 mmHg 26%
    22:00 +18°C° 0 mm 4 m/s 736 mmHg 29%
    23:00 +17°C° 0 mm 4 m/s 735 mmHg 31%

    Après-demain, 3 Avril, Vendredi

    Heure Température Précipitation Vent Pression Humidité
    00:00 +17°C° 0 mm 4 m/s 735 mmHg 33%
    01:00 +15°C° 0 mm 4 m/s 734 mmHg 35%
    02:00 +15°C° 0 mm 4 m/s 734 mmHg 37%
    03:00 +14°C° 0 mm 3 m/s 733 mmHg 38%
    04:00 +13°C° 0 mm 3 m/s 732 mmHg 40%
    05:00 +14°C° 0 mm 3 m/s 732 mmHg 39%
    06:00 +16°C° 0 mm 3 m/s 732 mmHg 37%
    07:00 +17°C° 0 mm 3 m/s 731 mmHg 35%
    08:00 +19°C° 0 mm 2 m/s 731 mmHg 31%
    09:00 +21°C° 0 mm 2 m/s 730 mmHg 28%
    10:00 +24°C° 0 mm 2 m/s 730 mmHg 24%
    11:00 +26°C° 0 mm 3 m/s 729 mmHg 22%
    12:00 +28°C° 0 mm 3 m/s 729 mmHg 20%
    13:00 +29°C° 0 mm 4 m/s 728 mmHg 17%
    14:00 +30°C° 0 mm 4 m/s 727 mmHg 16%
    15:00 +30°C° 0 mm 5 m/s 727 mmHg 14%
    16:00 +30°C° 0 mm 5 m/s 726 mmHg 12%
    17:00 +28°C° 0 mm 6 m/s 727 mmHg 17%
    18:00 +26°C° 0 mm 6 m/s 727 mmHg 22%
    19:00 +24°C° 0 mm 7 m/s 727 mmHg 28%
    20:00 +23°C° 0 mm 7 m/s 728 mmHg 33%
    21:00 +22°C° 0 mm 7 m/s 729 mmHg 39%
    22:00 +21°C° 0 mm 7 m/s 729 mmHg 44%
    23:00 +20°C° 0 mm 7 m/s 729 mmHg 47%

    4 Avril, Samedi

    Heure Température Précipitation Vent Pression Humidité
    00:00 +18°C° 0 mm 7 m/s 730 mmHg 50%
    01:00 +17°C° 0 mm 6 m/s 730 mmHg 53%
    02:00 +16°C° 0 mm 5 m/s 730 mmHg 57%
    03:00 +15°C° 0 mm 5 m/s 730 mmHg 60%
    04:00 +14°C° 0 mm 4 m/s 731 mmHg 64%
    05:00 +14°C° 0 mm 4 m/s 731 mmHg 60%
    06:00 +14°C° 0 mm 3 m/s 731 mmHg 55%
    07:00 +14°C° 0 mm 3 m/s 732 mmHg 51%
    08:00 +17°C° 0 mm 3 m/s 732 mmHg 42%
    09:00 +19°C° 0 mm 3 m/s 732 mmHg 32%
    10:00 +21°C° 0 mm 3 m/s 732 mmHg 23%
    11:00 +21°C° 0 mm 3 m/s 731 mmHg 21%
    12:00 +23°C° 0 mm 2 m/s 731 mmHg 18%
    13:00 +24°C° 0 mm 2 m/s 730 mmHg 16%
    14:00 +24°C° 0 mm 2 m/s 730 mmHg 16%
    15:00 +25°C° 0 mm 2 m/s 729 mmHg 15%
    16:00 +25°C° 0 mm 2 m/s 728 mmHg 15%
    17:00 +22°C° 0 mm 3 m/s 728 mmHg 19%
    18:00 +20°C° 0 mm 3 m/s 728 mmHg 22%
    19:00 +18°C° 0 mm 4 m/s 728 mmHg 26%
    20:00 +17°C° 0 mm 4 m/s 728 mmHg 28%
    21:00 +17°C° 0 mm 3 m/s 728 mmHg 30%
    22:00 +16°C° 0 mm 3 m/s 729 mmHg 32%
    23:00 +14°C° 0 mm 3 m/s 728 mmHg 33%

    5 Avril, Dimanche

    Heure Température Précipitation Vent Pression Humidité
    00:00 +14°C° 0 mm 3 m/s 728 mmHg 35%
    01:00 +14°C° 0 mm 2 m/s 728 mmHg 36%
    02:00 +12°C° 0 mm 3 m/s 728 mmHg 36%
    03:00 +12°C° 0 mm 4 m/s 728 mmHg 35%
    04:00 +10°C° 0 mm 5 m/s 728 mmHg 35%
    05:00 +10°C° 0 mm 5 m/s 729 mmHg 35%
    06:00 +11°C° 0 mm 6 m/s 729 mmHg 36%
    07:00 +11°C° 0 mm 6 m/s 729 mmHg 37%
    08:00 +14°C° 0 mm 7 m/s 729 mmHg 31%
    09:00 +16°C° 0 mm 8 m/s 730 mmHg 25%
    10:00 +18°C° 0 mm 9 m/s 730 mmHg 20%
    11:00 +19°C° 0 mm 9 m/s 729 mmHg 18%
    12:00 +22°C° 0 mm 10 m/s 729 mmHg 16%
    13:00 +23°C° 0 mm 10 m/s 729 mmHg 14%
    14:00 +22°C° 0 mm 12 m/s 729 mmHg 16%
    15:00 +22°C° 0 mm 13 m/s 729 mmHg 19%
    16:00 +20°C° 0 mm 15 m/s 729 mmHg 21%
    17:00 +18°C° 0 mm 14 m/s 731 mmHg 26%
    18:00 +17°C° 0 mm 13 m/s 732 mmHg 31%
    19:00 +14°C° 0 mm 12 m/s 733 mmHg 36%
    20:00 +13°C° 0 mm 10 m/s 734 mmHg 37%
    21:00 +12°C° 0 mm 8 m/s 736 mmHg 37%
    22:00 +10°C° 0 mm 6 m/s 737 mmHg 37%
    23:00 +10°C° 0 mm 5 m/s 737 mmHg 36%

    6 Avril, Lundi

    Heure Température Précipitation Vent Pression Humidité
    00:00 +9°C° 0 mm 5 m/s 738 mmHg 35%
    01:00 +8°C° 0 mm 4 m/s 738 mmHg 34%
    02:00 +7°C° 0 mm 4 m/s 738 mmHg 36%
    03:00 +8°C° 0 mm 3 m/s 739 mmHg 38%
    04:00 +7°C° 0 mm 3 m/s 739 mmHg 40%
    05:00 +8°C° 0 mm 3 m/s 739 mmHg 40%
    06:00 +8°C° 0 mm 2 m/s 740 mmHg 39%
    07:00 +9°C° 0 mm 2 m/s 741 mmHg 38%
    08:00 +12°C° 0 mm 2 m/s 741 mmHg 33%
    09:00 +14°C° 0 mm 2 m/s 741 mmHg 27%
    10:00 +16°C° 0 mm 2 m/s 741 mmHg 21%
    11:00 +16°C° 0 mm 2 m/s 741 mmHg 19%
    12:00 +17°C° 0 mm 2 m/s 741 mmHg 17%
    13:00 +18°C° 0 mm 2 m/s 740 mmHg 15%
    14:00 +19°C° 0 mm 2 m/s 740 mmHg 15%
    15:00 +19°C° 0 mm 2 m/s 740 mmHg 14%
    16:00 +19°C° 0 mm 2 m/s 739 mmHg 14%
    17:00 +17°C° 0 mm 3 m/s 739 mmHg 16%
    18:00 +14°C° 0 mm 3 m/s 739 mmHg 18%
    19:00 +13°C° 0 mm 3 m/s 739 mmHg 20%
    20:00 +12°C° 0 mm 3 m/s 740 mmHg 21%
    21:00 +12°C° 0 mm 3 m/s 740 mmHg 22%
    22:00 +11°C° 0 mm 3 m/s 740 mmHg 23%
    23:00 +10°C° 0 mm 3 m/s 740 mmHg 23%
    Voir plus